Weather Roundup
Issued by NWS Springfield, MO

Home | Current Version | Previous Version | Text Only | Print | Product List | Glossary On
Versions: 1 2 3 4 5 6 7 8 9 10 11 12 13 14 15 16 17 18 19 20 21 22 23 24 25 26 27 28 29 30 31 32 33 34 35 36 37 38 39 40 41 42 43 44 45 46 47 48 49 50
000
NZUS99 KSGF 160407
HRRSGF

HOURLY WEATHER
NATIONAL WEATHER SERVICE SPRINGFIELD MO
1000 PM CST FRI DEC 15 2017

......SGF CWA......

CITY           SKY/WX    TMP DP  RH WIND       PRES   REMARKS
SPRINGFIELD    CLEAR     32  24  72 S9        30.06F WCI  24
JOPLIN         CLEAR     38  27  64 S14       30.07F WCI  30
WEST PLAINS    CLEAR     34  24  67 SW5       30.11R WCI  30
ROLLA          CLEAR     32  25  75 SW10      30.05S WCI  24
OSAGE BEACH    CLEAR     34  25  69 S8        30.05F WCI  27
BRANSON        CLEAR     36  25  64 CALM      30.11S

......SURROUNDING SGF CWA......

CITY           SKY/WX    TMP DP  RH WIND       PRES   REMARKS
CHANUTE        CLEAR     38  23  55 S15       30.01F WCI  29
PARSONS        CLEAR     34  24  67 S6        30.05F WCI  29
COFFEYVILLE    CLEAR     35  24  64 S8        30.07S WCI  29
EMPORIA        CLEAR     38  25  59 S18G26    29.94F WCI  28
GROVE OK       CLEAR     36  28  75 S3        30.11F
ROGERS AR      CLEAR     36  27  69 SW9       30.12R WCI  29
SILOAM SPRINGS CLEAR     34  25  69 S7        30.12S WCI  28
HARRISON AR    CLEAR     38  26  62 CALM      30.11R
NEAR YELLVILLE CLEAR     35  25  66 CALM      30.14R

......KANSAS AND MISSOURI......

CITY           SKY/WX    TMP DP  RH WIND       PRES   REMARKS
KANSAS CTY INT CLEAR     40  25  55 SW17      29.91F WCI  31
DOWNTOWN KC    CLEAR     43  25  49 S14       29.93F
COLUMBIA       CLEAR     34  26  72 S10       30.00F WCI  26
SEDALIA        CLEAR     37  26  64 S9        30.00F WCI  30
ST JOSEPH      CLEAR     41  27  57 SW14      29.88F
ST LOUIS       CLEAR     36  25  64 SW9       30.05S WCI  29
SPIRIT OF STL  CLEAR     26  22  84 CALM      30.05S
KIRKSVILLE     CLEAR     37  27  67 SW14      29.90F WCI  28
WICHITA        CLEAR     38  25  59 S12       29.97S WCI  30
TOPEKA         CLEAR     42  26  53 S9G18     29.92F
OLATHE         CLEAR     37  25  61 SW10      29.95S WCI  30

......TENNESSEE......

CITY           SKY/WX    TMP DP  RH WIND       PRES   REMARKS
MEMPHIS        CLEAR     38  27  64 S10       30.20S WCI  31
NASHVILLE      CLEAR     28  22  78 S8        30.20F WCI  20

......ARKANSAS.......

CITY           SKY/WX    TMP DP  RH WIND       PRES   REMARKS
FAYETTEVILLE   CLEAR     28  24  85 SW3       30.13R
FT SMITH       CLEAR     35  27  72 SW3       30.16F
LITTLE ROCK    CLEAR     39  30  70 S6        30.20F WCI  35

......OKLAHOMA.......

CITY           SKY/WX    TMP DP  RH WIND       PRES   REMARKS
TULSA          CLEAR     42  22  44 S13       30.10S
PONCA CITY     CLEAR     40  23  50 S6        30.03F
MCALESTER      CLEAR     34  23  64 S6        30.16F WCI  29
OKLAHOMA CITY  CLEAR     36  22  56 S10       30.09S WCI  28

......IOWA............

CITY           SKY/WX    TMP DP  RH WIND       PRES   REMARKS
DES MOINES     CLOUDY    39  23  52 S10       29.78F WCI  32
QUAD CITIES    CLOUDY    38  22  52 SW14      29.87F WCI  30

......ILLINOIS........

CITY           SKY/WX    TMP DP  RH WIND       PRES   REMARKS
QUINCY         CLEAR     35  24  64 SW15      29.95F WCI  25
CHICAGO        CLOUDY    35  21  56 SW12      29.88F WCI  27




USA.gov is the U.S. government's official web portal to all federal, state and local government web resources and services.